Dewpoint
72 73 73 73 74 74 73 74 73 73 73 73 73 73 73 73 72 72 73 73 73 73 74 74 75 75 74 75 74 75 76 76 77 77 76 76 75 75 76 75 75 76 76 77 76 77 77 76 76 76 75 74 74 73 72 72 72 71 71 71 70 71 70 69 67 67 69 70 67 66 66 69 66 70 70 69 71 72 70 71 72 71 70 71 70
72 73 73 73 73 73 73 73 73 73 72 72 73 72 72 73 73 73 73 73 73 72 73 73 74 74 74 75 75 75 76 77 76 76 76 76 75 74 74 75 75 75 75 76 76 76 77 77 76 76 76 75 74 73 73 72 72 71 72 71 70 70 71 69 68 68 68 70 69 69 68 69 67 70 70 69 68 71 71 71 71 71 71 71 70
71 73 73 73 73 73 73 73 73 73 72 72 71 71 72 72 73 73 71 71 73 73 73 72 74 75 74 75 76 76 76 76 76 76 76 76 76 75 75 75 75 74 74 75 76 76 75 75 75 76 75 75 75 74 74 73 73 73 72 72 72 72 72 72 70 69 69 69 71 70 69 70 69 69 70 70 71 70 71 71 69 70 71 71 70
70 72 72 72 72 73 73 73 72 71 71 71 71 71 70 72 72 72 71 71 71 73 73 73 74 75 74 75 75 76 76 75 75 76 76 76 76 76 76 76 75 75 75 76 76 76 76 76 75 75 75 75 75 75 74 74 74 74 74 74 74 73 73 73 72 70 70 69 71 71 71 71 70 71 70 70 68 69 70 69 70 70 68 69 70
70 71 71 71 71 72 72 71 71 71 71 70 70 70 70 70 72 71 71 70 71 72 73 74 74 75 73 74 75 75 75 75 75 75 75 75 76 75 76 76 76 76 76 76 76 76 76 75 75 76 75 74 75 75 75 75 74 74 74 74 74 74 73 73 73 72 71 70 70 72 72 72 71 72 71 69 70 70 71 71 70 70 71 69 68
69 70 70 70 71 71 72 71 71 71 71 70 70 70 70 70 71 71 71 71 71 71 72 73 73 74 74 74 75 75 75 75 76 75 74 74 75 75 75 76 75 76 76 75 76 76 76 76 75 76 75 75 75 75 76 75 74 73 74 74 74 74 74 74 73 73 72 71 71 71 72 71 71 72 73 72 70 69 70 70 71 72 71 70 68
71 70 70 69 71 71 71 71 71 71 71 71 70 70 70 70 70 70 71 71 71 71 71 72 73 73 74 74 74 75 75 75 76 76 75 75 75 76 75 75 75 75 75 75 74 75 75 75 76 76 75 75 75 75 75 75 74 74 74 75 74 73 73 73 72 72 72 71 70 71 71 72 72 71 72 73 72 70 70 69 70 70 72 72 71
72 71 70 70 72 71 71 71 72 72 72 73 72 71 70 70 71 71 71 71 70 71 70 71 72 73 73 74 74 75 75 75 76 76 76 75 75 75 75 75 75 75 75 75 74 74 74 74 74 75 76 76 76 76 76 75 75 75 74 74 74 73 72 72 72 72 72 71 70 70 70 70 71 72 72 72 71 71 71 70 69 69 70 71 72
72 71 71 71 72 72 72 72 72 72 72 73 72 72 71 72 72 72 72 71 71 71 71 71 72 73 73 74 74 74 74 74 75 75 75 76 75 74 75 75 75 75 75 74 74 75 74 74 74 74 76 76 74 73 73 73 75 75 75 75 75 74 72 72 72 72 72 72 71 71 70 70 70 71 71 71 71 71 72 72 71 71 71 70 71
71 71 71 71 73 73 73 73 73 73 73 73 73 73 72 72 71 72 72 72 72 72 72 72 71 72 72 74 74 74 74 74 72 68 70 75 75 74 75 75 75 75 75 75 74 74 74 74 73 76 74 73 71 69 67 67 68 72 75 76 75 74 74 73 72 72 72 71 70 70 69 69 69 71 70 72 73 73 72 72 71 71 71 71 71
71 70 71 72 72 74 74 73 73 73 73 73 73 73 73 72 72 73 73 72 72 73 73 72 71 71 71 72 73 73 74 73 68 65 65 66 73 75 75 75 76 75 75 75 75 74 74 75 75 75 75 72 73 68 67 66 66 65 66 68 71 75 74 73 72 73 72 71 72 72 71 71 70 71 72 71 72 72 72 72 71 71 69 68 67
69 71 71 72 73 73 73 73 73 73 73 73 74 73 73 73 73 73 73 72 73 73 72 72 73 72 71 71 71 72 73 69 65 64 64 64 67 74 74 74 74 74 75 74 74 74 74 74 74 75 75 75 75 76 72 67 65 65 65 65 65 66 67 73 73 73 73 72 72 73 72 72 72 73 72 72 73 73 73 73 72 69 68 67 68
70 71 71 73 73 73 73 73 73 73 73 73 74 74 74 73 73 73 72 72 72 73 73 72 73 72 72 72 71 71 72 67 64 63 63 63 63 68 73 73 73 74 74 75 74 75 75 75 75 75 75 74 75 75 76 77 68 64 64 64 64 64 63 63 65 72 74 73 73 72 72 72 72 73 73 74 75 74 73 73 69 68 68 68 68
70 71 72 72 73 73 73 73 73 73 73 73 73 73 73 73 72 71 71 72 73 73 72 73 73 74 73 73 73 72 72 67 63 62 62 62 62 65 73 73 74 74 74 74 74 75 75 76 75 75 76 76 76 76 76 76 76 76 74 73 73 71 65 62 62 62 66 71 73 73 74 75 74 75 76 76 75 73 73 72 69 67 68 68 69
71 72 72 72 73 73 73 73 73 73 73 73 73 73 73 73 72 71 71 71 72 73 72 72 73 73 73 72 73 72 71 65 61 60 60 60 61 63 73 73 73 74 74 74 75 75 75 75 75 75 75 76 76 76 76 76 76 75 75 74 74 74 75 73 71 70 70 69 71 73 74 75 76 76 76 76 75 75 75 74 72 68 69 70 70
72 71 72 71 72 73 73 73 73 73 73 73 73 73 73 73 73 72 72 71 72 72 72 72 72 73 73 72 71 72 71 64 61 60 59 59 60 69 73 74 74 73 74 74 75 76 76 76 76 76 76 76 73 68 71 76 75 75 74 74 74 74 73 71 68 69 72 73 73 73 73 73 68 74 74 74 74 74 74 73 73 69 68 67 67
71 71 71 71 72 73 73 73 73 73 73 73 73 72 73 73 73 73 72 72 71 71 72 71 73 72 72 72 72 72 71 66 60 59 58 58 60 71 72 73 74 74 74 74 75 75 75 76 76 75 76 76 71 66 64 67 75 74 74 74 74 73 72 73 67 63 64 63 63 63 63 62 62 61 60 60 65 67 70 68 68 70 68 66 66
71 72 71 72 73 73 73 73 73 73 73 73 73 72 72 73 73 73 72 71 70 71 72 72 72 73 72 71 71 72 71 68 58 57 57 57 63 72 73 73 73 74 74 74 75 75 75 73 75 76 75 75 68 64 64 68 75 75 74 73 73 73 72 72 71 75 61 60 61 61 61 61 60 59 59 59 59 60 67 67 69 71 69 68 67
71 71 72 73 73 73 73 73 73 72 73 73 72 73 73 73 73 73 72 72 72 73 72 72 72 73 71 71 70 70 71 68 58 57 57 56 63 73 73 73 73 73 73 74 75 75 75 74 72 72 73 72 65 63 62 67 74 75 75 74 72 72 72 73 74 74 75 76 76 75 73 67 70 71 70 63 61 63 67 68 70 70 69 69 69
71 72 73 73 73 73 73 74 73 72 73 73 73 73 74 73 73 73 73 73 72 72 72 72 72 72 72 71 71 71 71 72 71 57 56 55 57 72 73 72 72 73 73 73 73 74 74 75 73 64 63 63 62 61 60 59 73 75 75 73 72 73 73 74 75 74 75 75 75 75 75 75 74 74 74 74 73 71 71 71 71 71 70 70 69
73 74 74 73 72 72 72 73 73 72 73 73 73 73 73 73 73 73 72 72 72 73 72 72 72 73 72 72 72 72 71 72 72 57 55 54 55 61 72 72 72 72 73 73 72 72 73 74 73 67 61 60 60 59 58 56 61 74 75 74 74 74 73 75 74 74 75 74 73 73 73 73 74 74 73 72 69 68 68 70 70 70 70 68 67
74 75 74 73 72 73 73 74 74 73 74 75 75 74 74 74 73 73 72 73 74 74 74 73 73 72 73 72 73 73 72 69 72 61 56 54 54 55 68 71 72 72 72 72 72 72 72 73 74 70 62 60 59 57 56 56 56 69 73 65 64 64 75 74 74 73 72 71 71 71 72 72 72 71 68 66 65 65 66 67 69 69 69 69 67
74 74 74 74 74 74 74 74 74 73 74 75 75 75 75 74 74 75 74 74 74 74 74 73 73 72 73 73 73 74 74 73 65 71 56 54 53 53 58 66 64 73 71 72 72 72 73 74 74 70 62 58 56 56 56 55 57 65 60 59 60 60 64 71 71 70 70 70 70 71 71 71 69 67 66 67 66 68 67 68 68 67 67 66 66
75 75 75 74 74 74 74 74 75 74 75 75 75 75 75 75 75 75 75 74 73 73 73 73 73 72 72 72 72 72 75 74 68 63 66 54 54 52 54 56 61 69 71 71 72 72 73 74 73 65 59 54 54 55 56 56 65 59 55 56 58 61 68 69 68 69 70 70 70 70 70 69 68 67 67 67 66 68 67 67 67 66 66 65 66
74 74 74 74 75 74 74 74 74 75 75 75 75 74 75 75 75 75 75 74 74 73 72 72 73 72 72 72 72 73 74 74 73 69 63 58 54 53 53 54 56 58 69 71 72 72 68 65 65 61 58 54 54 54 54 54 53 57 55 55 61 67 68 69 69 70 71 70 69 68 68 68 67 67 67 67 67 67 67 66 66 66 66 66 66
74 74 74 74 74 74 74 74 75 75 75 75 75 75 75 74 74 75 74 74 74 73 73 72 72 73 72 72 72 73 74 74 74 74 67 64 59 54 54 54 56 56 61 69 67 64 63 61 58 57 56 58 66 70 72 70 56 56 56 60 67 67 68 69 69 69 68 67 67 66 66 66 65 66 67 67 67 66 66 66 65 65 65 64 64
75 74 74 74 75 74 75 73 74 75 76 75 75 75 74 75 75 74 75 73 73 73 73 72 72 72 72 72 73 74 74 74 74 74 74 71 69 65 60 60 56 57 61 65 66 67 66 66 67 64 63 61 65 64 65 61 64 65 65 66 67 67 68 68 68 68 67 67 66 65 65 65 65 66 66 65 65 66 67 65 64 64 64 63 62
75 75 75 75 75 75 75 75 75 74 74 74 74 74 74 75 74 75 74 74 73 73 73 72 72 72 72 72 73 74 73 74 74 73 73 73 71 70 67 65 64 64 64 66 68 70 70 61 62 68 68 68 68 67 66 66 66 65 65 65 65 65 65 63 63 66 66 65 64 64 64 65 64 64 64 64 64 65 66 65 64 63 63 63 61
76 76 75 75 75 76 76 76 75 74 75 76 70 64 72 75 75 76 76 76 75 74 74 74 74 74 73 73 73 74 73 73 74 67 74 66 70 71 70 68 68 68 65 61 69 70 70 69 70 69 68 68 67 66 65 65 65 65 64 64 65 64 65 65 65 65 65 64 64 64 63 63 63 64 63 63 65 65 66 65 65 64 63 62 61
76 76 75 75 75 74 75 75 75 74 74 73 68 63 52 44 50 72 76 67 65 63 66 74 75 75 74 75 75 74 74 74 66 61 60 59 58 60 62 61 60 65 61 58 65 69 69 69 69 69 69 68 67 66 64 63 63 62 63 61 63 63 63 64 63 63 64 64 63 63 63 64 63 63 63 62 64 63 63 61 64 64 62 60 60
77 76 75 75 74 74 74 74 75 77 74 72 71 69 67 64 44 41 47 51 51 55 54 54 55 62 74 75 75 66 62 57 58 57 54 53 53 52 55 56 56 53 52 65 68 69 69 68 68 68 67 68 66 64 63 62 63 62 63 62 63 63 62 63 62 63 63 63 63 63 63 63 63 63 62 62 62 62 62 63 63 64 62 61 59
77 77 77 76 75 76 76 76 76 75 73 72 72 71 71 70 67 49 43 44 43 40 41 43 45 49 51 60 71 75 62 53 51 52 52 52 52 50 48 47 47 48 52 58 69 69 69 69 68 68 67 66 64 63 63 63 63 63 64 63 63 62 63 63 63 63 63 63 63 62 63 63 62 62 62 62 61 62 61 61 62 61 60 59 59
78 77 77 77 76 75 75 74 74 73 73 72 72 72 72 71 70 68 60 44 42 42 42 41 42 40 42 47 46 53 58 48 45 44 44 43 43 44 44 44 46 47 52 65 69 69 69 68 67 66 64 63 63 63 63 63 63 62 63 63 63 62 63 64 64 64 63 63 63 63 63 63 62 62 61 61 61 62 60 61 60 60 60 60 60
77 77 76 76 76 75 74 74 73 73 73 72 72 72 72 73 72 69 67 66 64 56 48 43 42 44 41 39 40 41 42 42 42 42 43 43 44 46 48 51 46 50 59 68 68 67 66 65 63 63 62 62 62 62 62 62 63 63 63 62 62 63 64 64 64 63 63 63 63 62 62 62 62 62 62 62 61 61 61 60 60 60 60 60 59
75 75 74 74 75 75 74 74 73 73 72 72 72 72 72 73 72 71 70 71 71 67 61 56 47 42 48 45 41 42 42 43 43 43 44 46 47 48 53 65 64 65 64 64 65 64 63 63 62 62 62 62 62 62 62 63 63 63 63 63 63 63 63 63 63 63 63 63 63 63 62 61 62 61 61 62 61 61 61 61 60 60 60 59 59
73 73 74 74 74 74 74 74 73 72 72 72 73 73 72 71 71 71 70 68 65 60 56 54 53 49 45 43 43 44 44 45 45 46 46 47 50 56 64 63 63 62 63 64 63 63 62 62 62 62 62 62 63 62 63 62 63 63 63 63 63 63 63 64 63 63 63 63 62 62 60 62 62 61 61 61 61 60 60 61 60 60 60 61 61
71 71 71 72 72 73 73 72 73 72 69 70 71 71 70 69 67 67 66 65 61 60 58 57 58 58 56 56 50 45 45 47 48 48 49 50 53 61 64 63 63 63 62 63 63 63 62 62 63 62 63 62 62 62 62 63 63 63 61 63 63 63 63 63 62 62 63 62 62 62 62 62 62 62 61 60 60 59 60 60 61 60 61 59 58
70 70 70 71 71 71 71 71 67 65 68 69 69 68 66 66 66 65 63 62 62 61 61 61 60 60 60 60 61 61 59 53 53 54 54 54 60 64 64 63 64 63 63 63 63 62 62 62 62 62 62 62 62 62 62 62 63 63 63 62 62 62 60 61 62 63 63 63 62 63 62 62 62 62 60 61 61 61 60 60 60 61 61 61 61
66 62 62 63 65 69 69 68 69 69 67 67 66 65 65 64 64 64 65 64 63 62 61 61 60 60 61 62 63 64 63 64 63 62 62 63 64 64 63 64 63 62 62 62 63 63 63 63 63 63 62 62 62 62 62 62 62 62 62 62 62 62 62 62 62 62 62 62 62 62 62 63 63 62 61 61 60 61 60 61 61 61 60 60 61
67 66 65 64 67 67 68 68 67 67 67 66 66 66 65 64 63 62 62 62 62 61 60 60 60 61 61 62 62 63 62 61 61 61 61 61 61 61 62 61 61 61 61 62 62 63 62 62 62 61 61 61 61 61 61 61 61 61 62 61 62 62 62 61 62 62 62 61 62 62 62 62 62 62 61 61 60 60 61 59 60 61 62 60 60
66 66 66 64 64 66 66 66 65 65 65 64 64 63 63 62 61 61 60 59 59 58 57 57 56 56 56 53 51 55 61 60 60 60 59 59 59 59 59 58 58 58 59 59 60 60 59 59 59 59 59 59 59 60 60 60 60 60 60 60 60 60 60 60 61 61 61 61 61 61 62 62 62 62 60 60 59 59 60 60 60 61 61 61 60
65 65 66 65 65 65 65 64 64 63 63 62 62 61 61 61 59 59 58 58 58 57 56 55 55 55 51 48 48 50 58 58 58 57 57 56 56 56 55 55 55 54 54 55 56 56 56 55 54 54 54 54 55 55 55 56 57 58 58 58 58 58 57 57 57 59 60 60 61 61 61 61 60 61 61 58 60 59 60 59 60 60 59 59 59
64 64 63 63 63 63 62 62 63 62 61 60 60 60 59 58 58 57 57 56 56 55 55 54 54 54 53 49 50 51 55 55 55 54 53 53 52 52 51 50 49 49 49 49 49 51 51 49 49 48 48 49 49 49 49 50 52 51 52 53 53 53 54 53 54 54 56 58 59 60 61 60 59 60 60 61 60 60 59 60 59 59 59 59 59
63 61 61 60 60 60 60 59 58 59 58 58 58 57 57 56 56 56 56 55 55 55 54 53 53 54 53 52 51 50 51 50 49 48 48 48 47 46 46 47 46 46 47 47 46 46 47 47 46 46 47 47 48 48 47 47 47 48 48 49 49 49 50 50 51 51 51 53 56 57 57 57 59 60 60 60 60 60 59 60 59 58 59 58 58
60 60 58 58 58 57 57 57 57 56 56 56 55 55 55 54 54 54 53 53 53 52 53 52 52 52 52 52 52 50 48 47 47 45 44 43 43 43 43 43 43 43 43 43 44 45 45 45 45 45 45 45 46 46 45 46 46 46 46 46 46 46 46 47 48 48 49 52 54 56 56 55 56 55 56 57 58 59 58 59 59 58 58 58 57
58 57 56 56 55 55 55 54 55 54 54 53 52 52 52 52 51 52 51 51 50 50 50 50 50 50 49 48 48 48 46 45 44 44 43 42 42 41 41 41 41 41 41 42 43 44 44 44 44 44 44 45 45 44 44 44 44 44 45 45 44 44 44 45 45 46 48 51 52 53 53 54 54 53 52 52 52 53 55 57 59 58 59 57 57
56 55 54 54 53 53 53 53 52 52 51 51 51 51 51 51 51 50 50 49 48 48 47 47 47 47 47 47 47 47 47 46 45 45 44 43 42 41 40 40 40 40 40 41 42 42 43 43 44 44 45 44 44 44 44 42 43 42 43 42 42 42 42 42 43 46 48 49 50 51 53 53 52 53 51 52 52 51 52 54 54 57 58 58 57
54 53 52 52 52 51 51 51 51 51 50 49 49 49 49 49 49 49 48 48 48 47 47 46 45 45 46 45 45 45 45 44 44 44 43 43 43 42 42 41 40 40 40 41 41 41 42 42 42 43 43 44 44 43 43 42 42 42 41 41 40 39 38 39 45 48 48 48 49 52 54 53 50 50 49 51 52 51 52 51 51 51 52 53 54
48 49 50 50 50 49 49 49 49 48 48 48 48 47 47 46 47 46 47 46 46 46 46 46 46 46 45 45 45 45 45 45 44 43 43 42 42 42 42 42 42 41 40 40 40 40 40 40 41 41 41 41 42 41 40 40 39 38 39 38 37 37 35 37 40 44 42 47 52 53 53 51 50 50 49 50 50 50 50 51 51 50 51 52 52
48 49 48 48 47 46 46 46 46 46 46 46 46 46 46 46 46 46 46 46 44 44 44 44 44 44 44 44 44 44 44 43 43 43 43 43 42 42 42 41 41 40 39 38 39 39 38 39 39 39 39 39 39 39 38 37 37 36 35 35 35 34 34 35 38 39 42 48 52 50 50 49 49 47 47 47 48 48 47 48 49 49 51 51 51
49 48 48 48 46 46 46 46 45 45 44 44 43 43 44 44 44 44 44 43 43 43 43 43 43 43 43 43 44 43 42 42 42 41 41 41 41 42 41 40 40 39 39 38 37 37 37 37 37 37 37 38 38 37 36 36 36 35 35 35 34 34 34 36 39 37 39 41 51 50 49 50 50 49 47 47 46 46 45 47 47 47 48 47 49